Vorticity
nan nan nan nan nan nan nan nan nan nan nan nan nan nan nan nan nan nan nan nan nan nan nan nan nan nan nan nan nan nan nan nan
nan 12 11 10 11 14 13 9 6 4 7 7 7 8 4 8 12 8 6 10 9 7 7 9 9 8 8 5 7 7 7 nan
nan 14 16 11 11 11 15 12 8 3 5 6 9 11 9 9 10 11 8 8 8 8 8 8 8 8 8 8 6 2 9 nan
nan 11 9 10 10 11 13 13 9 6 5 3 6 8 11 11 9 8 9 9 9 9 9 9 9 8 9 8 8 5 5 nan
nan 9 9 7 9 11 9 10 10 9 8 8 8 4 3 6 9 10 11 8 8 10 9 9 8 9 10 8 7 7 8 nan
nan 12 13 13 13 12 9 9 10 10 10 8 6 6 6 10 13 10 8 9 7 8 10 10 8 8 10 10 8 6 7 nan
nan 16 12 13 15 13 14 12 13 13 9 10 9 5 6 8 8 7 9 10 10 9 7 8 10 9 9 9 9 8 7 nan
nan 13 13 11 12 11 10 11 13 13 11 9 8 7 9 8 5 8 7 7 10 12 8 6 8 10 9 8 9 9 7 nan
nan 9 9 8 8 7 8 9 13 12 12 9 7 7 8 11 9 9 10 9 11 11 9 9 7 8 8 8 9 9 10 nan
nan 6 8 9 8 7 8 7 10 12 14 13 11 9 10 14 13 10 11 9 12 13 11 10 8 8 9 7 8 11 9 nan
nan 7 7 8 9 10 9 10 11 10 8 11 12 12 11 10 11 11 11 11 12 13 13 11 11 11 9 7 7 10 9 nan
nan 8 6 9 9 10 9 10 12 13 12 8 9 11 9 9 9 9 10 11 9 9 9 10 10 9 10 10 8 10 8 nan
nan 5 7 8 9 9 9 10 9 12 12 11 13 14 11 9 9 10 10 8 9 9 8 7 9 10 10 11 11 11 12 nan
nan 7 7 7 8 9 8 10 9 10 13 13 13 15 13 10 9 9 11 9 9 9 9 9 10 10 10 11 11 12 14 nan
nan 7 9 8 8 8 8 9 11 11 12 12 12 12 12 11 10 10 9 8 8 9 9 10 11 11 11 11 12 11 12 nan
nan 10 7 8 9 8 9 8 10 12 11 9 10 11 13 14 12 10 9 9 9 9 9 10 10 10 11 11 12 12 12 nan
nan 12 11 9 8 8 8 9 9 11 10 9 9 10 10 14 19 15 10 8 9 10 10 10 8 11 13 8 8 11 12 nan
nan 7 10 11 10 8 7 8 9 9 9 9 9 10 10 9 15 21 16 8 9 9 9 9 9 12 13 9 7 8 10 nan
nan nan nan nan nan nan nan nan nan nan nan nan nan nan nan nan nan nan nan nan nan nan nan nan nan nan nan nan nan nan nan nan
CAPE
0 0 0 0 0 0 1597 1726 1922 2278 1747 1318 1093 1008 837 920 741 724 797 792 502 325 100 5 104 41 0 0 0 0 1 18
0 0 0 0 0 0 1204 1666 1870 2085 1693 1425 1281 1186 945 708 899 729 607 708 511 330 199 28 90 77 0 0 0 0 0 2
0 0 0 0 0 0 144 1195 1831 2114 2072 1776 1564 1262 915 774 1036 889 733 714 443 256 172 59 111 77 0 0 0 0 0 0
0 0 0 0 0 0 110 853 1788 1959 2008 1539 777 383 461 452 532 484 434 427 350 205 87 40 44 106 13 0 0 0 0 0
0 0 0 0 0 0 0 205 1458 1667 1723 1582 1139 1128 745 534 522 485 374 316 386 195 48 24 1 40 43 12 0 0 0 0
0 0 0 0 0 21 0 0 732 1251 1593 1471 960 926 750 538 538 439 361 176 100 88 56 52 28 16 6 16 1 0 0 0
0 0 3 143 2 1 9 40 300 1241 1049 993 1063 923 511 413 347 197 136 120 85 12 24 28 19 0 0 0 2 0 0 0
101 209 220 500 209 45 53 129 1007 671 588 704 676 428 523 361 229 175 41 57 175 37 5 7 4 7 4 1 3 1 0 0
418 202 117 41 54 2 1 0 11 726 601 773 659 564 639 572 447 178 146 115 136 82 11 0 0 0 1 4 3 1 0 0
181 64 6 0 0 0 0 0 0 159 477 879 889 709 762 583 348 138 205 110 115 115 49 11 0 0 1 5 4 4 4 1
12 0 0 0 0 0 0 0 0 0 39 270 486 483 377 185 57 6 39 56 24 10 23 14 1 1 1 1 3 13 20 15
14 0 0 0 0 0 0 0 0 2 0 4 181 183 144 65 14 5 5 0 0 0 0 0 0 0 1 2 2 1 1 8
0 0 0 0 0 0 0 0 0 0 0 3 53 193 97 4 6 21 0 0 0 0 0 0 0 0 0 1 3 1 1 12
0 0 0 0 0 1 0 1 1 0 0 3 0 0 1 0 0 13 0 0 0 0 0 0 1 1 1 1 1 1 1 3
0 0 0 0 0 0 2 1 1 0 0 1 1 0 0 0 0 0 0 0 0 0 0 0 0 0 2 5 5 3 9 9
0 0 0 0 0 0 0 0 2 1 0 0 0 0 0 0 0 0 0 0 0 0 0 0 0 0 1 3 5 7 7 1
0 0 0 0 0 0 0 0 0 1 2 1 0 0 0 0 0 11 0 0 0 0 0 0 0 0 0 0 0 0 0 0
0 0 0 0 0 0 0 0 0 0 1 2 2 0 0 0 0 0 12 1 1 1 0 0 0 0 0 0 0 0 0 1
0 0 0 0 0 0 0 0 0 1 2 2 2 3 0 0 0 0 0 2 0 0 0 0 0 0 0 0 1 0 0 0